Hourly Data Report for April 03, 2004

SHERBROOKE A
QUEBEC

45°26'00.000" N
71°41'00.000" W
241.40 m
7028124
71610
YSC

Download Data

Hourly Data (April 2004)
Hourly Data Report for April 3, 2004
TIME
LST
Temp Definition
°C
Dew Point Definition
°C
Rel Hum Definition
%
Precip. Amount Definition
mm

Wind Dir Definition
10's deg

Wind Spd Definition
km/h
Visibility Definition
km
Stn Press Definition
kPa
Hmdx Definition


Wind Chill Definition


Weather Definition


00:00 2.5 1.4 92   7 6 15.0 97.97      
01:00 2.0 1.2 94   8 7 15.0 97.91      
02:00 2.1 1.2 94     0 15.0 97.85      
03:00 2.0 1.2 94   5 9 15.0 97.79      
04:00 2.0 1.1 94   5 7 15.0 97.75      
05:00 2.0 1.0 93   LegendMM LegendMM 15.0 97.68      
06:00 2.0 1.0 93   6 7 15.0 97.71      
07:00 2.5 1.3 92   6 7 15.0 97.73      
08:00 2.7 1.8 94   5 7 19.3 97.71     Cloudy
09:00 3.8 2.4 91   7 4 24.1 97.66     Cloudy
10:00 4.9 2.4 84   6 4 24.1 97.62     Cloudy
11:00 5.7 2.5 80   2 4 24.1 97.54     Cloudy
12:00 6.2 1.6 72   2 4 24.1 97.48     Cloudy
13:00 6.1 1.4 72   8 6 24.1 97.44     Cloudy
14:00 6.8 1.6 69     0 24.1 97.37     Cloudy
15:00 6.6 1.5 70     0 24.1 97.33     Cloudy
16:00 6.6 1.4 69   33 4 24.1 97.26     Cloudy
17:00 6.5 2.0 73   31 6 24.1 97.26     Cloudy
18:00 6.0 1.8 74   2 4 15.0 97.22      
19:00 4.9 1.5 79   5 7 15.0 97.19      
20:00 4.3 1.6 83   4 4 15.0 97.24      
21:00 4.0 1.6 84   5 6 15.0 97.18      
22:00 4.0 1.5 84   4 4 15.0 97.13      
23:00 3.7 1.4 85   5 6 15.0 97.11      

Notes on Data Quality.

Legend

  • E = Estimated
  • M = Missing
  • NA = Not Available*
  • [empty] = Indicates an unobserved value
Date modified: